sat.trackr.live / text

‹ back to catalog

STARLINK-31377

NORAD 58938 · 2024-027H

PAYLOAD ACTIVE UNKNOWN

§ Identity

Operator
Country
US
Launch date
2024-02-10
Launch site
AFWTR
Launch vehicle
Mass (kg)
RCS (m²)

Purposes: comms

External: N2YO · Heavens-Above · Gunter

§ Orbital elements

Epoch: 2026-09-20T21:34:25.023936Z

Period
93.85 min
Inclination
53.1566°
Eccentricity
0.0001156
Mean motion
15.34394933 rev/d
Perigee alt
461.9 km
Apogee alt
463.5 km
Semi-major
6,840.9 km
B*
-1.0785e-5
RAAN
121.6255°
Arg perigee
93.0186°
Mean anomaly
267.0949°
Rev number
14,723

§ Raw data

STARLINK-313771 58938U 24027H   26263.89890074 -.00000740  00000+0 -10785-4 0  99992 58938  53.1566 121.6255 0001156  93.0186 267.0949 15.34394933147231

JSON: /api/v1/satellites/58938 · /tle

For live sub-satellite position, see the globe view (requires WebGL).

§ Visibility from observer

Set your observer location to see the next 7 days of passes ≥ 10°. The values pass through the URL so the page stays shareable.

No JS? Fill the form by hand. The geolocation button needs JavaScript.